map of DLE home
DLE - Airport
Location
City:  Dole, Franche-Comté, France
Name:Tavaux
ICAO:LFGJ
IATA:DLE

Details
Type:Airport (Aerodrome, Airfield)
Use:Public/Civil
Latitude:47°02'34"N (47.042778)
Longitude:5°26'06"E (5.435000)
Elevation:645 ft (197 m)
Variation:1.42°E (WMM2015 magnetic declination)
0.12° annual change
Runways:2
Longest:7316 × 148 ft (2230 × 45 m), paved

Time
Time Zone:UTC+1 (DST+2)
Local Time:

Weather
METAR:LFGJ 060530Z AUTO 00000KT 3200 BR NSC M04/M04 Q1029 TEMPO 5000 BKN004

Related Locations
Nearby:
Farthest:CHT: 12190 mi / 19618 km
Waitangi [Tuuta], CIT, NZ

Find:

   beyond  
but within

Other Information
Maps:
NOTAMs:
Links:
Sources:

  
flag of France
flag of Franche-Comté
  

Sectional Chart

Flight Planning
at skyvector.com

Satellite Image

Google Maps Satellite view

 

Copyright © 2004-2016 Karl L. Swartz. All rights reserved.
The Great Circle Mapper name and logo are trademarks of the Great Circle Mapper.
All other trademarks mentioned herein belong to their respective owners.
Please see credits for attibutions and further copyright information.

  Follow gcmap on Facebook Follow gcmap on Twitter Follow gcmap on Google+ GCmap on LinkedIn

hCard Microformat

Geo Microformat